This is the latest recevied weather packets stored in our database for station/object PP5CFL-2. If no packets are shown the sender has not sent any weather packets the latest 10 day(s).
| Time | Temp. | Humidity | Pressure | Rain* | Wind** | Luminosity | Snow |
|---|---|---|---|---|---|---|---|
| 1788024111 | 30.56° C | 80% | 1005 hPa | - | - | - | - |
| 1788023811 | 30.56° C | 83% | 1005.1 hPa | - | - | - | - |
| 1788023511 | 30.56° C | 85% | 1005.3 hPa | - | - | - | - |
| 1788023211 | 30.56° C | 83% | 1005.3 hPa | - | - | - | - |
| 1788022911 | 31.11° C | 85% | 1005.2 hPa | - | - | - | - |
| 1788022611 | 30.56° C | 85% | 1005.4 hPa | - | - | - | - |
| 1788022311 | 31.11° C | 89% | 1005.5 hPa | - | - | - | - |
| 1788022011 | 30.56° C | 92% | 1005.7 hPa | - | - | - | - |
| 1788021711 | 30.56° C | 89% | 1005.7 hPa | - | - | - | - |
| 1788021412 | 30.56° C | 91% | 1005.8 hPa | - | - | - | - |
| 1788021111 | 30.56° C | 90% | 1005.8 hPa | - | - | - | - |
| 1788020811 | 31.11° C | 91% | 1005.8 hPa | - | - | - | - |
| 1788020511 | 31.11° C | 92% | 1005.8 hPa | - | - | - | - |
| 1788020211 | 30.56° C | 91% | 1005.9 hPa | - | - | - | - |
| 1788019911 | 31.11° C | 91% | 1005.8 hPa | - | - | - | - |
| 1788019611 | 31.11° C | 92% | 1005.8 hPa | - | - | - | - |
| 1788019311 | 31.67° C | 91% | 1005.7 hPa | - | - | - | - |
| 1788019011 | 31.67° C | 93% | 1005.7 hPa | - | - | - | - |
| 1788018711 | 31.67° C | 95% | 1005.9 hPa | - | - | - | - |
| 1788018411 | 31.67° C | 91% | 1006 hPa | - | - | - | - |
| 1788018111 | 31.67° C | 94% | 1006 hPa | - | - | - | - |
| 1788017811 | 31.67° C | 93% | 1006.2 hPa | - | - | - | - |
| 1788017511 | 31.67° C | 96% | 1006.3 hPa | - | - | - | - |
| 1788017211 | 31.67° C | 98% | 1006.5 hPa | - | - | - | - |
| 1788016911 | 31.67° C | 96% | 1006.6 hPa | - | - | - | - |
* Rain since midnight (hover to see other rain measurements)
** Current wind speed in m/s (hover to see current wind gust speed)